Weather in Amazar

Russia / Zabaykalsky Krai     53°51′28″N   120°52′02″E
temp.,
°C
wind,
m/s
gust,
m/s
humid.,
%
clouds,
%
prec.,
mm/h
press.,
hPa
HPBL,
m
15 may, sat
sat1500:00+3nnw279594 0.0 1008484
03:00+4nw1897100 0.0 1008623
06:00+4wnw278550 0.0 1008641
09:00+8n495682 0.0 10071359
12:00+13nnw683491 0.0 10062332
15:00+14nnw5830100 0.0 10042662
18:00+14nnw472914 0.0 10042694
21:00+7n11543 0.0 100610
16 may, sun
sun1600:00+4nne11661 0.0 100611
03:00+2nnw11760 0.0 100510
06:00+3nne11730 0.0 100412
09:00+11sw22441 0.0 1001558
12:00+15sw45304 0.0 9991559
15:00+18wsw692231 0.0 9963362
18:00+17wnw411235 0.0 9953744
21:00+9nw387469 0.8 998413
17 may, mon
mon1700:00+5wnw311835 0.0 1001349
03:00+2wnw3106187 0.0 1003299
06:00+1wnw2859100 0.0 1004316
09:00+6nw3535100 0.0 10041014
12:00+10nw352599 0.0 10021931
15:00+13w2420100 0.0 9992995
18:00+12wnw1326100 0.0 9982490
21:00+7wnw1148100 0.0 99925
18 may, tue
tue1800:00+5ese1175100 0.2 99934
03:00+3nne2296100 1.5 1000284
06:00+1nnw259999 1.9 1000233
09:00+4n477065 2.2 10021264
12:00+7nnw465289 0.4 10021796
15:00+9n473989 0.6 10012444
18:00+8nw24467 0.3 10021360
21:00+3w116994 0.7 100310
19 may, wed
wed1900:000w11793 0.1 100511
03:00−2w118911 0.1 100510
06:00−1w008373 0.0 100632
09:00+6sse2353100 0.0 1003500
12:00+9s4641100 0.0 10001937
15:00+11sw3536100 0.0 9972012
18:00+10wnw355449 0.1 9961293
21:00+5nne228789 0.3 99827